Flag Weather past 2 weeks in Youngstown, Ohio, U.S.A.

Now
47 °F

Overcast.


Feels Like: 41 °F
Forecast: 40 / 51 °F
Wind: 13 mph from Southwest

Location: Youngstown-Warren Regional Airport

Current Time: Nov 23, 2014 at 12:06:19 AM

Latest Report: Nov 22, 2014 at 10:51 PM


Visibility: 10 mi

Pressure: 30.07 "Hg

Humidity: 59%

Dew point: 33 °F

Location of YoungstownLocation

Historic Weather in Youngstown — Graph

°F

Youngstown temperature yesterday

Maximum temperature yesterday: 47 °F (at 10:51 PM)
Minimum temperature yesterday: 18 °F (at 12:51 AM)
Average temperature yesterday: 33 °F

Past Weeks' High & Low Weather Summary

 TemperatureHumidityPressure
High68 °F (Nov 11, 2:51 PM)100% (Nov 16, 10:51 PM)30.53 "Hg (Nov 16, 10:51 PM)
Low9 °F (Nov 19, 3:51 AM)31% (Nov 10, 2:51 PM)29.61 "Hg (Nov 17, 2:01 PM)
Average33 °F68%30.07 "Hg
* Reported Nov 7 10:51 PM — Nov 22 10:51 PM, Youngstown, Weather by CustomWeather, © 2014

Note: Actual official high and low records may vary slightly from our data, if they occured in-between our weather recording intervals... More about our weather records

Advertising

Youngstown weather history for previous 24 hours

 ConditionsComfort  
Time TempWeatherWind HumidityBarometerVisibility
10:51 PM
Nov 22
47 °FOvercast.13 mph59%30.07 "Hg10 mi
9:51 PM46 °FPartly cloudy.12 mph63%30.08 "Hg10 mi
8:51 PM45 °FMostly cloudy.9 mph60%30.09 "Hg10 mi
7:51 PM43 °FMostly cloudy.14 mph65%30.09 "Hg10 mi
6:51 PM42 °FOvercast.10 mph71%30.11 "Hg10 mi
5:51 PM42 °FMostly cloudy.8 mph71%30.12 "Hg10 mi
4:51 PM42 °FMostly cloudy.9 mph71%30.12 "Hg10 mi
3:51 PM41 °FMostly cloudy.12 mph76%30.13 "Hg10 mi
2:51 PM40 °FOvercast.12 mph86%30.14 "Hg10 mi
1:51 PM39 °FMostly cloudy.12 mph89%30.15 "Hg8 mi
12:51 PM36 °FFog.13 mph97%30.18 "Hg5 mi
11:51 AM34 °FLight rain. Fog.10 mph92%30.21 "Hg5 mi
10:51 AM32 °FLight rain. Ice fog.12 mph88%30.24 "Hg1 mi
9:51 AM28 °FLight freezing rain. Ice fog.10 mph93%30.28 "Hg1 mi
8:51 AM27 °FLight freezing rain. Ice fog.10 mph63%30.29 "Hg3 mi
7:51 AM25 °FBroken clouds.9 mph55%30.30 "Hg10 mi
6:51 AM23 °FOvercast.8 mph57%30.32 "Hg10 mi
5:51 AM22 °FPassing clouds.10 mph57%30.34 "Hg10 mi
4:51 AM22 °FMostly cloudy.10 mph57%30.36 "Hg10 mi
3:51 AM21 °FPassing clouds.12 mph60%30.38 "Hg10 mi
2:51 AM20 °FPassing clouds.9 mph60%30.41 "Hg10 mi
1:51 AM19 °FPassing clouds.8 mph62%30.43 "Hg10 mi
12:51 AM18 °FClear.7 mph62%30.44 "Hg10 mi
Weather by CustomWeather, © 2014

See weather overviewHow to use our weather pages